Flag for Uzbekistan Weather past 2 weeks in Tashkent, Uzbekistan

Now
66 °F

Clear.


Feels Like: 66 °F
Forecast: 54 / 68 °F
Wind: 6 mph from West

Location: Tashkent

Current Time: Oct 22, 2014 at 10:16:03 AM

Latest Report: Oct 22, 2014 at 9:30 AM


Visibility: 4 mi

Pressure: 29.98 "Hg

Humidity: 60%

Dew point: 52 °F

Location of TashkentLocation

Historic Weather in Tashkent — Graph

°F

Tashkent temperature yesterday

Maximum temperature yesterday: 64 °F (at 3:00 PM)
Minimum temperature yesterday: 50 °F (at 5:00 AM)
Average temperature yesterday: 57 °F

Past Weeks' High & Low Weather Summary

 TemperatureHumidityPressure
High84 °F (Oct 20, 1:00 PM)100% (Oct 21, 5:00 AM)30.57 "Hg (Oct 21, 5:00 AM)
Low39 °F (Oct 9, 5:30 AM)15% (Oct 18, 11:00 AM)29.74 "Hg (Oct 18, 1:30 PM)
Average58 °F50%30.15 "Hg
* Reported Oct 7 9:00 AM — Oct 22 9:00 AM, Tashkent, Weather by CustomWeather, © 2014

Note: Actual official high and low records may vary slightly from our data, if they occured in-between our weather recording intervals... More about our weather records

Advertising

Tashkent weather history for previous 24 hours

 ConditionsComfort  
Time TempWeatherWind HumidityBarometerVisibility
9:00 AM
Oct 22
63 °FClear.3 mph68%29.98 "Hg4 mi
8:30 AM63 °FClear.1 mph64%29.98 "Hg4 mi
8:00 AM61 °FClear.3 mph68%29.98 "Hg4 mi
7:30 AM59 °FClear.1 mph72%29.98 "Hg4 mi
7:00 AM57 °FFog.1 mph77%29.95 "Hg3 mi
6:30 AM57 °FFog.3 mph77%29.95 "Hg2 mi
6:00 AM57 °FFog.3 mph82%29.98 "Hg2 mi
5:30 AM57 °FFog.6 mph77%29.98 "Hg2 mi
5:00 AM57 °FFog.6 mph82%29.98 "Hg2 mi
4:30 AM57 °FFog.6 mph82%29.98 "Hg2 mi
4:00 AM57 °FFog.6 mph82%30.01 "Hg2 mi
3:30 AM55 °FFog.3 mph88%30.01 "Hg2 mi
3:00 AM57 °FFog.3 mph82%30.01 "Hg2 mi
2:30 AM57 °FFog.6 mph88%30.01 "Hg2 mi
2:00 AM55 °FFog.1 mph100%30.04 "Hg2 mi
1:30 AM57 °FFog.1 mph88%30.04 "Hg2 mi
1:00 AM57 °FFog.3 mph88%30.04 "Hg2 mi
12:30 AM57 °FFog.3 mph94%30.07 "Hg2 mi
12:00 AM57 °FFog.6 mph88%30.07 "Hg2 mi
11:30 PM
Oct 21
55 °FFog.3 mph100%30.07 "Hg2 mi
11:00 PM57 °FClear.6 mph88%30.09 "Hg10 mi
10:30 PM55 °FClear.3 mph88%30.12 "Hg10 mi
10:00 PM55 °FClear.1 mph88%30.12 "Hg10 mi
9:30 PM55 °FClear.3 mph88%30.12 "Hg10 mi
9:00 PM55 °FClear.1 mph88%30.12 "Hg10 mi
8:30 PM57 °FClear.No wind77%30.12 "Hg10 mi
8:00 PM57 °FClear.No wind82%30.15 "Hg10 mi
7:30 PM57 °FClear.1 mph77%30.15 "Hg10 mi
7:00 PM59 °FClear.1 mph72%30.18 "Hg10 mi
6:30 PM59 °FClear.3 mph77%30.18 "Hg10 mi
6:00 PM59 °FClear.6 mph77%30.18 "Hg10 mi
5:30 PM61 °FSunny.6 mph72%30.18 "Hg10 mi
5:00 PM63 °FPassing clouds.6 mph68%30.15 "HgN/A
4:30 PM64 °FSunny.6 mph64%30.18 "Hg10 mi
4:00 PM64 °FPassing clouds.3 mph64%30.18 "HgN/A
3:30 PM64 °FPassing clouds.3 mph60%30.18 "HgN/A
3:00 PM64 °FPassing clouds.6 mph60%30.18 "HgN/A
2:30 PM63 °FPassing clouds.6 mph68%30.21 "HgN/A
2:00 PM63 °FPassing clouds.6 mph68%30.21 "HgN/A
1:30 PM63 °FPassing clouds.6 mph64%30.24 "HgN/A
1:00 PM61 °FPassing clouds.6 mph68%30.24 "HgN/A
12:30 PM61 °FPassing clouds.6 mph68%30.27 "HgN/A
12:00 PM59 °FPassing clouds.6 mph72%30.27 "HgN/A
11:30 AM55 °FMostly cloudy.6 mph82%30.30 "HgN/A
11:00 AM55 °FClear.8 mph88%30.30 "Hg4 mi
10:30 AM55 °FMostly cloudy.6 mph88%30.30 "Hg4 mi
10:00 AM55 °FLow clouds.6 mph94%30.30 "Hg4 mi
Weather by CustomWeather, © 2014

See weather overviewHow to use our weather pages